Simultaneous Nadir Overpasses (SNOs) Predictions

Prediction of SNOs between AQUA and METOP-B Satellite Orbit:

Table of predicted SNOs for the next 14.0 days since TLE Epoch: 10/19/2024
Index Date (AQUA) Time (AQUA) Lat,Lon (AQUA) SZA (AQUA ) Date (METOP-B) Time (METOP-B) Lat,Lon (METOP-B) SZA (METOP-B ) Distance(km) Time Diff (sec)
1 10/20/2024 04:02:25 -76.38, -62.60 93.20 10/20/2024 04:01:55 -76.41, -62.56 93.17 2.98 30
2 10/20/2024 04:51:47 76.42, 104.92 86.86 10/20/2024 04:52:34 76.44, 104.92 86.89 2.23 47
3 10/22/2024 18:32:14 -76.43, 79.85 92.23 10/22/2024 18:32:02 -76.41, 79.92 92.24 2.20 12
4 10/22/2024 19:21:36 76.48,-112.67 87.84 10/22/2024 19:22:41 76.45,-112.62 87.81 3.45 65
5 10/25/2024 08:12:37 76.38, 54.97 88.62 10/25/2024 08:11:29 76.37, 54.88 88.61 2.67 68
6 10/25/2024 09:01:58 -76.43,-137.54 91.32 10/25/2024 09:02:09 -76.44,-137.54 91.31 1.62 11
7 10/27/2024 22:42:17 76.43,-162.58 89.56 10/27/2024 22:41:35 76.42,-162.51 89.54 2.73 42
8 10/27/2024 23:31:37 -76.44, 5.08 90.43 10/27/2024 23:32:16 -76.45, 4.92 90.42 4.13 39
9 10/30/2024 12:22:19 -75.89, 174.19 90.13 10/30/2024 12:21:15 -75.81, 170.55 90.23 99.15 64
10 10/30/2024 13:11:51 76.45, -19.97 90.43 10/30/2024 13:11:41 76.44, -19.99 90.42 1.71 10
11 10/30/2024 14:01:12 -76.50, 147.53 89.51 10/30/2024 14:02:21 -76.51, 147.62 89.49 2.87 69
12 11/02/2024 02:51:59 -76.43, -44.90 88.77 11/02/2024 02:51:07 -76.45, -44.81 88.75 3.18 52



Historial Predications of SNOs between AQUA and METOP-B
